Simultaneous Nadir Overpasses (SNOs) Predictions

Prediction of SNOs between GOES-15 and METOP-A Satellite Orbit:

Table of predicted SNOs for the next 14.0 days since TLE Epoch: 1/18/2015
Index Date Time (GOES-15) GOES-15 Lat,Lon METOP-A Lat,Lon Distance(km) Time Diff (sec)
1 01/18/2015 18:14:41 -0.01,-134.65 -0.85,-130.80 437.95 80
2 01/20/2015 06:33:43 -0.00,-134.56 -0.20,-135.40 95.91 80
3 01/21/2015 06:10:24 0.00,-134.51 0.91,-130.41 466.89 80
4 01/22/2015 18:29:18 0.01,-134.44 0.13,-134.97 60.34 80
5 01/25/2015 06:30:20 -0.02,-134.30 -0.06,-134.58 31.68 80
6 01/27/2015 18:28:34 0.02,-134.17 0.03,-134.14 2.51 80
7 01/30/2015 06:24:17 -0.02,-134.01 0.04,-133.75 29.57 80




NCC Satellite Simultaneous Nadir Overpasses (SNOs) Prediction Service
